C/2022 QE78 ( ATLAS )

Japanese version
Home page
Updated on December 1, 2023

---------------------------------------------------------------------

* Profile

Discovery Date August 27, 2022
Magnitude 19.4 mag
Discoverer Asteroid Terrestrial-Impact Last Alert System (ATLAS) search program

* Pictures

* Orbital Elements

Epoch 2023 Sept. 13.0 TT = JDT 2460200.5
T 2025 Sept. 10.18570 TT                                Rudenko
q   5.4818933            (2000.0)            P               Q
z  -0.0006080      Peri.    0.34617     -0.50338183     -0.69307746
 +/-0.0000043      Node   119.94611     +0.79132530     -0.60959968
e   1.0033332      Incl.   36.54801     +0.34700289     +0.38474909
>From 523 observations 2022 Aug. 27-2023 Sept. 27, mean residual 0".4.

* Finding Charts

* Magnitudes Graph

        m1 = 4.0 + 5 log d + 10.0 log r

---------------------------------------------------------------------

The orbital elements are published on M.P.E.C. 2023-S260.
The charts are made with StellaNavigator Ver.10 (AstroArts).
The magnitudes graphs are made with Comet for Windows.

---------------------------------------------------------------------

Copyright(C) Seiichi Yoshida (comet@aerith.net). All rights reserved.